Wind_Speed
5 5 5 4 5 5 5 4 4 4 4 4 4 4 5 5 4 4 5 5 5 5 5 5 5 5 6 6 7 7 8 8 8 8 8 8 8 8 7 7 7 7 7 8 8 8 8 7 7
5 5 5 4 5 5 5 4 4 4 4 4 5 5 5 5 5 5 5 6 5 5 5 5 5 6 6 7 7 7 8 8 8 8 8 8 8 8 8 8 8 8 8 8 8 8 8 8 8
6 5 5 5 5 5 5 5 4 5 5 4 5 5 5 5 5 5 5 6 6 5 6 6 6 6 6 7 8 7 7 8 8 8 9 9 9 9 9 9 9 9 9 9 9 9 9 8 8
6 6 6 6 6 6 6 5 5 5 5 5 5 5 6 6 5 5 6 6 5 5 6 6 7 7 7 7 7 7 7 8 8 9 9 9 9 9 9 9 9 10 10 10 9 9 9 9 9
7 6 6 6 5 5 5 5 5 5 6 6 5 6 6 6 6 6 6 6 6 6 6 6 6 6 7 7 7 7 7 7 8 9 9 9 9 9 10 9 9 9 9 9 9 9 9 9 10
7 6 6 6 6 6 6 6 6 6 7 6 6 6 6 6 6 6 6 6 6 6 6 6 6 7 7 7 7 7 7 7 8 9 8 9 9 10 10 9 9 9 9 10 10 10 10 10 10
7 6 6 6 6 6 6 6 6 6 6 5 6 6 6 6 6 6 5 6 6 6 6 6 7 7 7 7 7 8 8 8 8 8 9 9 9 9 10 10 10 10 10 10 11 10 10 10 11
7 7 7 6 6 6 5 5 6 5 5 5 5 5 5 6 6 6 5 5 6 6 6 7 7 7 7 7 8 8 8 7 8 8 9 8 9 9 9 9 9 9 10 10 10 10 10 10 11
7 6 6 6 5 5 5 5 6 5 5 5 5 6 6 6 6 6 5 5 6 5 6 7 7 7 7 7 7 7 7 7 8 8 8 8 8 9 9 9 10 10 10 10 10 10 10 10 10
7 6 6 5 5 5 5 6 5 5 5 6 6 6 6 5 5 5 6 5 5 6 6 7 7 8 7 7 7 7 7 8 8 8 8 8 8 8 9 9 10 10 10 10 10 10 10 10 10
6 6 6 5 5 5 6 6 5 4 4 5 5 6 5 5 5 5 5 5 5 6 6 7 7 7 7 7 7 7 8 8 8 8 8 8 8 9 9 9 9 10 11 11 10 11 11 10 11
6 6 6 5 5 5 5 5 5 4 4 4 5 5 5 4 5 5 5 6 6 6 7 7 6 7 7 7 8 8 8 8 8 8 8 9 9 9 9 10 10 10 10 10 11 11 11 11 11
6 5 6 6 6 6 6 5 4 4 4 4 4 4 4 5 5 5 5 6 6 7 7 7 7 7 7 8 8 8 8 8 8 8 8 8 8 9 9 9 9 10 11 11 10 11 12 12 11
6 5 5 6 6 6 6 5 4 4 4 4 4 4 4 5 5 5 6 6 6 7 7 7 7 8 8 8 8 8 8 9 9 9 8 8 8 8 8 9 9 10 11 11 11 11 11 11 11
5 5 5 5 5 5 5 5 5 4 4 4 4 4 4 5 5 6 6 7 7 7 7 7 7 8 8 8 8 9 9 9 9 9 9 9 9 9 9 10 10 10 11 11 11 12 11 11 11
4 4 4 4 5 5 5 5 5 5 5 5 5 5 5 5 6 6 7 7 7 7 7 7 7 8 8 8 8 8 8 9 9 9 10 10 10 10 10 10 11 11 12 12 12 12 12 12 12
5 5 4 4 5 5 5 5 5 5 5 5 6 6 6 6 7 7 7 7 7 7 7 7 7 8 9 9 9 9 9 9 9 10 10 10 10 10 10 10 11 11 11 12 12 12 12 11 11
5 5 4 5 5 5 5 5 5 5 6 6 6 6 6 7 7 7 7 7 7 7 8 8 8 8 8 9 9 9 10 9 9 10 10 10 10 10 10 11 11 11 12 12 11 11 11 11 10
6 5 5 5 5 6 6 6 6 5 6 6 6 6 6 7 7 7 7 8 8 8 8 9 9 9 10 10 10 10 10 10 10 11 11 11 11 11 11 11 11 11 11 11 11 12 11 11 10
7 7 7 6 6 7 6 6 6 6 6 6 6 6 7 7 8 8 8 9 9 9 9 9 10 10 11 11 11 11 11 11 11 12 12 12 12 12 12 12 12 12 11 11 12 12 12 11 11
8 9 8 8 7 7 7 8 8 7 7 6 6 7 7 8 8 8 9 9 10 10 10 10 11 11 12 12 12 12 12 12 12 13 13 12 12 12 12 12 12 12 13 12 12 12 12 12 11
9 9 9 9 8 8 8 8 8 7 7 6 6 7 7 8 8 8 9 10 10 10 10 11 12 12 12 12 12 12 12 12 13 13 13 13 12 13 14 14 13 13 14 14 13 12 13 13 13
10 10 10 10 10 8 8 8 7 7 7 7 7 7 7 8 8 8 9 9 10 11 11 12 12 13 13 13 13 13 13 13 13 14 14 14 15 15 15 15 15 15 15 14 14 13 13 13 13
11 11 11 11 10 9 9 9 8 8 7 7 8 8 8 8 8 8 9 10 10 11 12 13 13 14 14 14 14 14 14 14 14 15 15 15 16 16 16 16 16 16 16 15 14 14 14 14 13
11 12 12 11 10 10 11 10 8 8 8 8 8 9 9 9 9 9 10 11 12 12 13 13 14 14 14 14 15 15 15 15 15 16 16 16 17 17 17 16 16 17 17 16 15 15 15 14 14
11 12 12 12 11 11 11 10 10 9 9 9 9 10 11 11 11 11 11 12 12 12 13 14 15 15 15 16 16 16 16 16 16 17 17 17 17 17 17 17 17 17 17 17 16 16 15 15 15
11 12 12 13 12 13 12 11 11 10 10 11 11 11 12 12 12 13 13 13 13 14 14 15 15 16 16 17 17 17 17 17 18 18 18 18 18 17 17 18 18 17 17 18 18 18 17 17 16
12 13 13 13 13 14 13 11 11 11 11 12 13 13 13 14 14 14 15 15 15 15 16 16 17 17 17 17 17 17 17 18 19 18 18 19 18 18 18 18 18 18 18 18 18 19 19 18 18
13 13 14 14 15 15 15 13 11 12 12 13 14 15 14 14 15 16 16 16 16 17 17 18 18 18 18 18 17 18 18 19 19 19 19 19 19 19 19 19 19 19 19 19 19 20 20 20 20
14 14 14 16 16 16 17 16 13 13 13 14 15 16 16 16 16 17 17 18 18 18 19 19 19 19 19 19 19 19 19 19 19 19 19 19 18 19 19 19 19 20 20 20 20 20 21 22 22
Wind_Direction
253 249 251 247 244 247 252 253 258 266 269 266 269 270 272 271 269 266 262 263 266 265 267 279 282 279 279 280 279 274 274 276 275 277 281 275 272 271 271 273 269 264 260 261 262 260 261 262 265
253 249 248 256 263 258 264 264 256 265 269 266 269 270 269 266 263 264 263 264 268 268 269 276 280 282 283 285 282 277 278 274 273 274 276 274 272 273 275 276 274 270 265 265 265 263 265 267 268
252 253 253 253 261 268 270 269 267 273 274 273 268 268 269 266 265 268 268 270 271 270 267 272 274 278 282 283 282 280 277 275 274 272 273 272 271 273 276 277 278 275 270 269 269 269 269 270 270
257 255 255 255 259 265 267 272 274 278 274 273 270 270 269 264 269 269 271 275 275 272 269 272 275 277 280 283 278 280 282 275 274 274 273 269 271 270 273 275 277 277 274 272 272 271 270 270 267
263 256 252 256 259 260 261 266 270 276 273 272 273 277 273 269 268 273 277 278 281 277 275 276 274 276 281 282 281 282 282 277 274 274 272 269 271 271 273 275 276 279 278 274 272 270 269 270 269
265 258 256 256 259 263 268 272 272 274 277 275 271 275 275 274 271 273 274 272 272 273 276 278 280 282 283 284 283 283 281 281 280 276 272 271 276 277 273 273 275 277 278 277 275 274 274 273 273
254 255 254 259 265 271 274 278 276 276 277 274 272 275 279 277 275 274 274 271 271 275 277 278 279 282 282 283 282 285 284 284 283 280 274 276 275 275 275 275 277 279 281 279 276 276 277 275 274
254 255 257 263 269 274 278 283 277 272 275 270 269 273 276 280 278 274 271 271 273 276 276 273 276 280 281 284 283 285 286 285 283 279 276 276 276 276 277 279 280 282 284 284 280 279 278 277 277
253 256 261 269 271 271 276 277 282 278 276 276 273 273 274 277 271 269 268 270 274 277 280 278 276 277 280 283 287 287 285 288 287 282 279 276 279 278 278 282 282 282 282 284 283 281 278 277 279
255 258 263 267 264 266 275 277 279 279 278 277 279 280 279 275 270 268 266 266 269 274 277 277 276 275 278 279 285 290 290 289 288 288 283 279 280 278 277 282 283 281 280 280 279 278 278 278 278
252 252 254 258 262 270 277 278 274 275 278 276 278 278 276 272 268 263 265 267 270 278 280 282 281 282 281 281 287 290 292 290 290 293 290 285 284 279 277 280 284 284 281 277 276 276 276 278 279
247 251 253 258 261 267 272 276 273 268 270 272 278 277 270 270 275 274 274 273 275 280 282 282 286 287 283 281 287 292 292 290 293 295 293 289 286 285 285 283 283 285 285 283 280 277 274 277 278
246 249 256 262 262 262 264 266 267 265 268 268 271 271 270 269 272 279 278 275 276 281 281 281 282 281 279 279 286 289 289 292 294 292 291 291 291 288 287 286 285 284 286 285 283 279 276 274 275
254 255 254 256 258 257 257 259 263 265 268 268 264 264 271 275 273 276 282 281 279 281 283 286 287 285 284 286 288 289 288 291 292 292 290 288 291 292 288 288 290 292 289 286 285 284 280 275 275
253 260 252 247 252 257 260 260 267 269 271 271 267 266 269 279 277 279 283 282 281 284 287 288 289 289 290 289 291 295 292 288 288 289 287 287 288 289 287 288 290 291 290 289 287 286 283 275 275
253 253 255 248 253 259 262 263 265 270 269 266 266 266 268 274 278 284 287 286 288 290 291 289 288 288 291 292 292 295 298 296 293 290 288 288 288 291 291 293 292 291 288 287 287 286 281 278 275
255 255 257 255 254 260 261 262 263 262 267 267 264 264 269 274 276 281 287 288 286 287 291 291 288 288 290 291 294 294 297 296 294 294 293 293 292 293 292 293 295 293 287 284 286 286 283 279 276
256 258 259 264 263 264 264 270 266 264 266 268 266 266 269 276 276 279 285 287 285 287 290 290 289 286 287 291 293 293 296 298 295 296 297 295 291 289 289 291 292 292 286 282 284 285 282 276 272
258 260 264 266 266 269 274 279 276 276 275 277 272 270 272 273 278 282 282 285 288 288 291 291 290 291 290 291 291 292 294 296 297 298 298 296 293 290 287 288 292 291 287 284 282 280 279 274 271
258 262 266 268 264 267 270 275 279 278 276 275 272 270 273 275 278 281 279 282 288 290 293 295 293 291 290 289 289 290 290 291 294 298 297 294 290 291 292 290 291 289 288 286 283 282 279 276 272
256 262 262 265 267 271 273 272 273 280 274 273 271 273 276 275 276 278 278 281 286 290 293 293 292 291 288 288 288 288 289 288 289 292 293 291 288 287 289 290 291 290 289 287 284 283 281 279 274
256 262 262 262 268 269 276 277 273 279 276 272 273 274 276 273 272 275 279 281 283 288 292 293 292 291 291 288 287 288 290 291 290 290 289 289 288 288 287 287 286 286 286 284 281 282 281 280 274
258 261 261 261 265 268 275 278 274 275 274 273 273 277 280 278 276 280 283 284 285 288 291 293 293 292 292 290 288 288 288 289 289 288 289 289 289 288 287 285 285 284 280 279 278 276 277 278 274
259 261 262 264 266 266 269 274 275 274 271 269 272 278 282 280 279 282 284 283 285 288 289 292 292 293 292 291 289 289 289 288 287 288 288 288 289 288 286 285 283 284 279 276 276 276 275 275 274
263 265 266 266 264 267 267 271 271 271 270 269 272 278 283 283 281 281 283 284 286 288 290 292 292 293 292 291 288 287 288 288 289 289 288 287 288 288 287 283 283 282 281 277 274 274 275 273 272
263 265 267 269 269 268 270 272 267 266 268 270 272 276 280 284 283 283 285 286 287 288 290 292 292 293 291 289 287 286 287 288 289 288 288 288 288 288 285 283 282 280 278 276 272 272 272 272 272
259 262 265 266 268 266 268 269 263 266 267 267 270 273 277 281 282 282 285 287 287 288 291 293 292 291 289 287 285 285 285 286 285 287 288 287 287 285 283 282 281 280 277 274 272 271 270 271 272
257 261 262 263 269 272 272 271 268 269 269 273 272 273 280 279 280 282 283 286 289 289 290 292 290 289 288 287 288 287 286 286 286 286 287 288 286 284 283 281 279 278 277 275 272 271 269 267 269
257 261 263 265 269 272 274 274 276 278 272 274 275 275 278 283 284 285 285 285 288 290 292 291 292 292 292 292 291 290 289 288 288 287 287 286 284 282 281 279 277 277 277 275 272 270 268 266 267
255 260 262 266 269 270 273 274 275 276 276 275 276 277 280 284 287 289 288 286 287 289 290 289 291 292 293 292 291 290 291 290 291 289 288 286 284 283 282 279 277 276 277 275 273 271 269 267 267
Height
5881 5881 5881 5882 5882 5882 5882 5882 5881 5881 5881 5881 5881 5881 5881 5881 5882 5884 5882 5880 5880 5879 5879 5879 5879 5878 5878 5878 5878 5878 5877 5877 5877 5876 5876 5876 5875 5875 5875 5875 5874 5874 5874 5873 5873 5873 5873 5873 5872
5880 5880 5881 5881 5881 5880 5881 5880 5880 5880 5880 5880 5880 5880 5880 5880 5880 5880 5879 5878 5878 5878 5878 5878 5878 5877 5877 5877 5877 5876 5876 5875 5875 5875 5875 5874 5874 5874 5874 5873 5873 5872 5872 5872 5872 5872 5871 5871 5871
5879 5879 5881 5880 5879 5880 5880 5879 5879 5879 5879 5879 5879 5879 5879 5879 5879 5878 5878 5877 5877 5877 5877 5877 5877 5876 5876 5876 5875 5875 5874 5874 5874 5874 5873 5873 5873 5872 5872 5872 5871 5871 5871 5870 5870 5870 5870 5869 5869
5878 5878 5879 5879 5878 5878 5878 5878 5877 5877 5877 5877 5877 5877 5877 5877 5877 5877 5876 5876 5876 5876 5875 5875 5875 5875 5875 5874 5873 5873 5873 5873 5872 5872 5872 5871 5871 5871 5870 5870 5870 5869 5869 5869 5868 5868 5868 5868 5867
5876 5876 5877 5877 5877 5876 5876 5876 5876 5876 5876 5876 5876 5875 5875 5876 5875 5875 5875 5875 5874 5874 5874 5874 5874 5873 5873 5873 5872 5872 5871 5871 5871 5870 5870 5870 5869 5869 5869 5869 5868 5868 5867 5867 5867 5866 5866 5866 5865
5876 5875 5876 5875 5875 5874 5874 5874 5874 5874 5874 5874 5874 5874 5873 5874 5873 5873 5873 5873 5873 5873 5873 5872 5872 5872 5872 5871 5871 5870 5870 5869 5869 5869 5868 5868 5868 5867 5867 5867 5866 5866 5866 5865 5865 5864 5864 5864 5863
5875 5874 5874 5874 5873 5873 5873 5873 5873 5872 5872 5872 5872 5872 5872 5872 5872 5872 5871 5871 5871 5871 5871 5871 5871 5870 5870 5870 5869 5869 5868 5868 5867 5867 5866 5866 5866 5866 5865 5865 5865 5864 5864 5863 5863 5863 5862 5862 5861
5872 5873 5872 5872 5872 5872 5871 5871 5871 5871 5870 5871 5871 5871 5870 5870 5870 5870 5870 5870 5870 5869 5869 5869 5869 5869 5868 5868 5867 5867 5866 5866 5866 5865 5865 5864 5864 5864 5863 5863 5863 5862 5862 5861 5861 5861 5860 5860 5859
5871 5872 5870 5871 5871 5870 5870 5870 5870 5869 5869 5869 5869 5869 5869 5869 5868 5868 5868 5868 5868 5868 5868 5868 5867 5867 5867 5866 5866 5865 5865 5864 5864 5863 5863 5862 5862 5862 5861 5861 5860 5860 5860 5859 5859 5858 5858 5857 5857
5869 5869 5869 5869 5869 5869 5868 5869 5868 5868 5868 5868 5867 5867 5867 5867 5866 5866 5867 5867 5867 5866 5866 5866 5866 5865 5865 5864 5864 5863 5863 5862 5862 5861 5861 5860 5860 5860 5859 5859 5858 5858 5857 5857 5856 5856 5856 5855 5855
5868 5868 5867 5867 5867 5867 5867 5867 5867 5867 5867 5866 5866 5865 5865 5865 5865 5865 5865 5865 5865 5865 5865 5864 5864 5863 5863 5863 5862 5862 5861 5861 5860 5859 5859 5858 5858 5857 5857 5857 5856 5856 5855 5854 5854 5853 5853 5853 5852
5866 5866 5866 5866 5865 5865 5865 5865 5865 5865 5865 5865 5864 5864 5864 5864 5863 5863 5864 5864 5863 5863 5863 5863 5862 5862 5861 5861 5860 5860 5859 5859 5858 5857 5857 5856 5856 5855 5855 5854 5854 5853 5852 5852 5851 5851 5851 5850 5850
5865 5864 5864 5864 5863 5864 5864 5863 5863 5863 5863 5863 5863 5862 5862 5862 5862 5862 5862 5862 5862 5861 5861 5861 5861 5860 5860 5859 5858 5858 5857 5857 5856 5855 5855 5854 5854 5853 5852 5852 5851 5851 5850 5849 5849 5848 5848 5848 5847
5863 5863 5863 5862 5862 5862 5862 5862 5862 5862 5861 5861 5861 5861 5861 5861 5861 5861 5860 5860 5860 5860 5859 5859 5858 5858 5858 5857 5856 5856 5855 5854 5854 5853 5853 5852 5851 5851 5850 5850 5849 5848 5847 5847 5846 5845 5845 5845 5844
5861 5862 5862 5861 5861 5861 5861 5861 5861 5860 5860 5860 5860 5860 5859 5859 5859 5859 5859 5859 5858 5858 5857 5857 5856 5856 5856 5855 5854 5854 5853 5852 5851 5851 5850 5850 5849 5848 5848 5847 5846 5845 5845 5844 5843 5843 5842 5842 5841
5860 5861 5860 5860 5859 5859 5860 5860 5859 5858 5858 5858 5858 5858 5858 5858 5857 5857 5857 5857 5856 5855 5855 5855 5854 5854 5853 5853 5852 5851 5850 5850 5849 5848 5848 5847 5847 5846 5845 5844 5843 5843 5842 5841 5840 5840 5839 5838 5838
5859 5859 5859 5859 5858 5857 5858 5857 5857 5857 5856 5856 5856 5856 5856 5856 5856 5855 5855 5854 5854 5853 5853 5853 5852 5852 5851 5851 5850 5849 5848 5848 5847 5846 5845 5845 5844 5843 5842 5841 5841 5840 5839 5838 5837 5836 5836 5835 5835
5858 5857 5857 5857 5856 5856 5856 5856 5855 5855 5854 5854 5854 5854 5854 5854 5854 5853 5853 5852 5852 5851 5851 5850 5850 5849 5849 5848 5847 5847 5846 5845 5844 5843 5843 5842 5841 5840 5840 5839 5838 5837 5836 5835 5834 5833 5833 5832 5831
5855 5855 5855 5855 5854 5854 5854 5853 5853 5852 5852 5852 5852 5852 5851 5851 5851 5851 5850 5850 5849 5849 5848 5848 5847 5847 5846 5845 5845 5844 5844 5843 5842 5841 5840 5839 5838 5837 5837 5836 5835 5834 5833 5832 5831 5830 5829 5829 5828
5853 5853 5853 5853 5852 5852 5851 5851 5851 5850 5850 5850 5850 5849 5849 5849 5849 5848 5848 5847 5847 5847 5846 5845 5845 5844 5843 5843 5842 5841 5841 5840 5839 5838 5837 5836 5835 5834 5833 5833 5832 5830 5829 5828 5828 5827 5826 5825 5824
5851 5851 5851 5851 5850 5850 5849 5849 5848 5848 5847 5847 5847 5847 5847 5846 5846 5846 5845 5845 5844 5844 5843 5842 5842 5841 5840 5839 5839 5838 5837 5837 5836 5835 5834 5833 5832 5831 5830 5829 5828 5827 5826 5824 5823 5823 5822 5822 5821
5848 5848 5848 5848 5847 5847 5847 5846 5846 5845 5845 5845 5844 5844 5844 5844 5843 5843 5842 5842 5841 5841 5840 5839 5839 5838 5837 5836 5835 5834 5834 5833 5832 5831 5830 5829 5828 5827 5826 5825 5824 5823 5821 5820 5819 5819 5818 5817 5817
5846 5845 5845 5845 5844 5845 5844 5843 5844 5843 5842 5842 5842 5841 5841 5841 5840 5840 5839 5839 5838 5837 5837 5836 5835 5834 5833 5832 5832 5831 5830 5829 5828 5827 5826 5825 5824 5823 5822 5820 5819 5818 5817 5816 5815 5815 5814 5813 5813
5843 5843 5842 5842 5842 5842 5841 5841 5841 5840 5840 5839 5839 5838 5838 5838 5837 5837 5836 5835 5835 5834 5834 5833 5832 5831 5829 5828 5828 5827 5826 5825 5824 5823 5822 5821 5819 5818 5817 5816 5815 5813 5812 5811 5811 5810 5810 5809 5809
5840 5840 5840 5839 5838 5838 5838 5837 5838 5837 5837 5836 5836 5836 5835 5835 5834 5834 5833 5832 5832 5831 5830 5829 5828 5827 5826 5825 5824 5823 5821 5820 5819 5818 5817 5815 5814 5813 5812 5811 5809 5808 5807 5807 5806 5806 5805 5805 5804
5836 5836 5837 5836 5835 5835 5834 5834 5835 5834 5833 5833 5833 5833 5832 5832 5831 5830 5830 5829 5828 5827 5826 5825 5824 5823 5822 5820 5819 5818 5817 5815 5814 5813 5811 5810 5809 5807 5806 5805 5804 5803 5802 5801 5801 5800 5800 5800 5799
5832 5832 5833 5832 5831 5831 5831 5831 5831 5830 5830 5830 5829 5829 5829 5828 5827 5827 5826 5825 5825 5823 5822 5821 5820 5818 5817 5816 5815 5813 5812 5810 5809 5807 5806 5804 5803 5802 5801 5800 5799 5798 5797 5796 5795 5795 5794 5794 5794
5829 5829 5829 5828 5828 5827 5827 5827 5828 5827 5826 5826 5826 5826 5825 5824 5823 5823 5822 5821 5820 5819 5818 5817 5815 5814 5812 5811 5809 5808 5806 5805 5803 5802 5800 5799 5797 5796 5795 5794 5793 5792 5791 5790 5789 5789 5788 5788 5788
5826 5826 5824 5824 5824 5824 5823 5826 5825 5824 5823 5822 5822 5821 5821 5820 5819 5818 5817 5817 5816 5815 5814 5812 5810 5809 5807 5806 5804 5802 5801 5799 5798 5796 5795 5793 5791 5790 5789 5788 5787 5786 5785 5784 5783 5783 5782 5782 5782
5821 5821 5821 5821 5820 5819 5819 5822 5820 5819 5819 5818 5817 5817 5816 5816 5815 5814 5813 5812 5811 5810 5808 5807 5805 5804 5802 5800 5798 5797 5795 5794 5792 5790 5789 5787 5786 5784 5783 5781 5780 5779 5778 5777 5777 5776 5776 5775 5775